When you browse on this site, cookies collect data to enhance your experience and personalize the content and advertising you see.
Visit our Privacy Policy to learn more. By continuing to use the site, you agree to this use of cookies and data.
  • Em Portugal
  • Lista de países
  • Para 7 dias
  • Temperatura da água
  • Mapas de satélite
  • Mapa do tempo
  • Widgets de tempo
  • user-avatar
    Iniciar Sessão

    Previsão horária em Pogrebische

    Hoje, 20 Janeiro, Domingo

    Tempo Temperatura Precipitação Vento Pressão Humidade
    00:00 -11°C° 0 mm 1 m/s 747 mmHg 90%
    01:00 -11°C° 0 mm 1 m/s 747 mmHg 89%
    02:00 -11°C° 0 mm 1 m/s 747 mmHg 89%
    03:00 -11°C° 0 mm 1 m/s 746 mmHg 88%
    04:00 -13°C° 0 mm 2 m/s 746 mmHg 88%
    05:00 -13°C° 0 mm 2 m/s 746 mmHg 87%
    06:00 -13°C° 0 mm 2 m/s 746 mmHg 88%
    07:00 -12°C° 0 mm 2 m/s 746 mmHg 88%
    08:00 -12°C° 0 mm 2 m/s 746 mmHg 89%
    09:00 -10°C° 0.1 mm 3 m/s 745 mmHg 90%
    10:00 -9°C° 0.1 mm 3 m/s 745 mmHg 91%
    11:00 -8°C° 0.1 mm 3 m/s 745 mmHg 92%
    12:00 -7°C° 0.2 mm 3 m/s 745 mmHg 93%
    13:00 -8°C° 0.2 mm 4 m/s 744 mmHg 94%
    14:00 -8°C° 0.2 mm 4 m/s 744 mmHg 94%
    15:00 -7°C° 0.3 mm 3 m/s 743 mmHg 95%
    16:00 -7°C° 0.3 mm 3 m/s 743 mmHg 95%
    17:00 -7°C° 0.3 mm 3 m/s 742 mmHg 96%
    18:00 -6°C° 0.4 mm 2 m/s 742 mmHg 96%
    19:00 -6°C° 0.4 mm 2 m/s 742 mmHg 97%
    20:00 -4°C° 0.4 mm 1 m/s 741 mmHg 97%
    21:00 -4°C° 0.5 mm 1 m/s 741 mmHg 97%
    22:00 -4°C° 0.5 mm 1 m/s 741 mmHg 97%
    23:00 -5°C° 0.5 mm 0 m/s 741 mmHg 97%

    Amanhã, 21 Janeiro, Segunda-feira

    Tempo Temperatura Precipitação Vento Pressão Humidade
    00:00 -4°C° 0.3 mm 1 m/s 741 mmHg 97%
    01:00 -4°C° 0.3 mm 1 m/s 741 mmHg 97%
    02:00 -6°C° 0.3 mm 2 m/s 741 mmHg 97%
    03:00 -7°C° 0 mm 2 m/s 741 mmHg 97%
    04:00 -9°C° 0 mm 3 m/s 741 mmHg 96%
    05:00 -9°C° 0 mm 3 m/s 741 mmHg 96%
    06:00 -10°C° 0 mm 3 m/s 741 mmHg 95%
    07:00 -12°C° 0 mm 3 m/s 741 mmHg 95%
    08:00 -13°C° 0 mm 3 m/s 742 mmHg 94%
    09:00 -12°C° 0 mm 4 m/s 742 mmHg 94%
    10:00 -11°C° 0 mm 4 m/s 743 mmHg 94%
    11:00 -10°C° 0 mm 4 m/s 743 mmHg 93%
    12:00 -10°C° 0 mm 4 m/s 744 mmHg 93%
    13:00 -9°C° 0 mm 4 m/s 744 mmHg 93%
    14:00 -10°C° 0 mm 5 m/s 744 mmHg 93%
    15:00 -9°C° 0 mm 4 m/s 744 mmHg 93%
    16:00 -9°C° 0 mm 4 m/s 744 mmHg 92%
    17:00 -9°C° 0 mm 3 m/s 745 mmHg 91%
    18:00 -10°C° 0 mm 3 m/s 745 mmHg 92%
    19:00 -10°C° 0 mm 2 m/s 745 mmHg 92%
    20:00 -13°C° 0 mm 2 m/s 745 mmHg 93%
    21:00 -13°C° 0 mm 2 m/s 745 mmHg 94%
    22:00 -14°C° 0 mm 2 m/s 746 mmHg 95%
    23:00 -14°C° 0 mm 2 m/s 746 mmHg 95%

    Depois de amanhã, 22 Janeiro, Terça-feira

    Tempo Temperatura Precipitação Vento Pressão Humidade
    00:00 -15°C° 0 mm 2 m/s 746 mmHg 96%
    01:00 -13°C° 0 mm 1 m/s 746 mmHg 97%
    02:00 -14°C° 0 mm 1 m/s 746 mmHg 98%
    03:00 -14°C° 0 mm 1 m/s 746 mmHg 98%
    04:00 -14°C° 0 mm 1 m/s 746 mmHg 98%
    05:00 -15°C° 0 mm 1 m/s 745 mmHg 98%
    06:00 -15°C° 0 mm 1 m/s 745 mmHg 98%
    07:00 -15°C° 0 mm 1 m/s 746 mmHg 98%
    08:00 -15°C° 0 mm 1 m/s 746 mmHg 98%
    09:00 -14°C° 0 mm 1 m/s 746 mmHg 97%
    10:00 -15°C° 0 mm 2 m/s 746 mmHg 95%
    11:00 -14°C° 0 mm 2 m/s 746 mmHg 94%
    12:00 -13°C° 0 mm 2 m/s 746 mmHg 93%
    13:00 -12°C° 0 mm 2 m/s 745 mmHg 93%
    14:00 -12°C° 0 mm 2 m/s 745 mmHg 92%
    15:00 -13°C° 0 mm 2 m/s 745 mmHg 93%
    16:00 -13°C° 0 mm 2 m/s 744 mmHg 94%
    17:00 -15°C° 0 mm 3 m/s 744 mmHg 95%
    18:00 -15°C° 0 mm 3 m/s 744 mmHg 95%
    19:00 -15°C° 0 mm 3 m/s 744 mmHg 95%
    20:00 -15°C° 0 mm 3 m/s 744 mmHg 95%
    21:00 -14°C° 0 mm 3 m/s 744 mmHg 95%
    22:00 -14°C° 0 mm 3 m/s 743 mmHg 95%
    23:00 -14°C° 0 mm 4 m/s 743 mmHg 95%

    23 Janeiro, Quarta-feira

    Tempo Temperatura Precipitação Vento Pressão Humidade
    00:00 -14°C° 0 mm 4 m/s 743 mmHg 94%
    01:00 -12°C° 0 mm 4 m/s 743 mmHg 93%
    02:00 -13°C° 0 mm 5 m/s 742 mmHg 92%
    03:00 -13°C° 0.2 mm 5 m/s 742 mmHg 93%
    04:00 -13°C° 0.2 mm 5 m/s 741 mmHg 93%
    05:00 -12°C° 0.2 mm 5 m/s 741 mmHg 94%
    06:00 -12°C° 0.3 mm 5 m/s 741 mmHg 94%
    07:00 -12°C° 0.3 mm 5 m/s 741 mmHg 94%
    08:00 -12°C° 0.3 mm 6 m/s 740 mmHg 94%
    09:00 -11°C° 0.3 mm 6 m/s 740 mmHg 94%
    10:00 -11°C° 0.3 mm 6 m/s 740 mmHg 94%
    11:00 -10°C° 0.3 mm 6 m/s 740 mmHg 94%
    12:00 -9°C° 0.2 mm 6 m/s 740 mmHg 93%
    13:00 -9°C° 0.2 mm 6 m/s 740 mmHg 93%
    14:00 -8°C° 0.2 mm 7 m/s 739 mmHg 93%
    15:00 -8°C° 0.1 mm 6 m/s 739 mmHg 92%
    16:00 -8°C° 0.1 mm 6 m/s 739 mmHg 92%
    17:00 -8°C° 0.1 mm 6 m/s 739 mmHg 92%
    18:00 -8°C° 0.1 mm 6 m/s 739 mmHg 92%
    19:00 -8°C° 0.1 mm 6 m/s 739 mmHg 93%
    20:00 -8°C° 0.1 mm 6 m/s 739 mmHg 93%
    21:00 -8°C° 0.1 mm 6 m/s 739 mmHg 93%
    22:00 -8°C° 0.1 mm 6 m/s 739 mmHg 94%
    23:00 -8°C° 0.1 mm 6 m/s 738 mmHg 94%

    24 Janeiro, Quinta-feira

    Tempo Temperatura Precipitação Vento Pressão Humidade
    00:00 -8°C° 0.2 mm 6 m/s 738 mmHg 94%
    01:00 -8°C° 0.2 mm 6 m/s 738 mmHg 94%
    02:00 -8°C° 0.2 mm 6 m/s 737 mmHg 94%
    03:00 -6°C° 0.6 mm 6 m/s 737 mmHg 95%
    04:00 -6°C° 0.6 mm 5 m/s 736 mmHg 95%
    05:00 -6°C° 0.6 mm 5 m/s 736 mmHg 95%
    06:00 -5°C° 0.2 mm 5 m/s 736 mmHg 95%
    07:00 -4°C° 0.2 mm 5 m/s 736 mmHg 95%
    08:00 -2°C° 0.2 mm 5 m/s 736 mmHg 95%
    09:00 -2°C° 0.1 mm 5 m/s 736 mmHg 97%
    10:00 -1°C° 0.1 mm 4 m/s 736 mmHg 98%
    11:00 -1°C° 0.1 mm 4 m/s 736 mmHg 99%
    12:00 -1°C° 0.1 mm 4 m/s 735 mmHg 99%
    13:00 0°C° 0.1 mm 3 m/s 735 mmHg 99%
    14:00 0°C° 0.1 mm 3 m/s 735 mmHg 100%
    15:00 0°C° 0 mm 3 m/s 735 mmHg 99%
    16:00 +1°C° 0 mm 2 m/s 735 mmHg 99%
    17:00 +1°C° 0 mm 2 m/s 735 mmHg 99%
    18:00 +1°C° 0 mm 2 m/s 735 mmHg 99%
    19:00 +1°C° 0 mm 2 m/s 735 mmHg 99%
    20:00 +1°C° 0 mm 2 m/s 735 mmHg 99%
    21:00 +1°C° 0 mm 2 m/s 735 mmHg 99%
    22:00 +1°C° 0 mm 2 m/s 736 mmHg 99%
    23:00 +1°C° 0 mm 2 m/s 736 mmHg 99%

    25 Janeiro, Sexta-feira

    Tempo Temperatura Precipitação Vento Pressão Humidade
    00:00 +1°C° 0 mm 2 m/s 736 mmHg 99%
    01:00 +1°C° 0 mm 2 m/s 735 mmHg 99%
    02:00 +2°C° 0 mm 1 m/s 735 mmHg 99%
    03:00 +1°C° 0 mm 2 m/s 735 mmHg 99%
    04:00 +1°C° 0 mm 2 m/s 735 mmHg 99%
    05:00 +1°C° 0 mm 2 m/s 735 mmHg 99%
    06:00 +1°C° 0.1 mm 2 m/s 735 mmHg 99%
    07:00 +1°C° 0.1 mm 2 m/s 735 mmHg 99%
    08:00 +1°C° 0.1 mm 2 m/s 735 mmHg 99%
    09:00 0°C° 0.1 mm 3 m/s 735 mmHg 99%
    10:00 0°C° 0.1 mm 3 m/s 735 mmHg 99%
    11:00 0°C° 0.1 mm 3 m/s 736 mmHg 100%
    12:00 0°C° 0 mm 3 m/s 735 mmHg 100%
    13:00 0°C° 0 mm 3 m/s 735 mmHg 100%
    14:00 -1°C° 0 mm 4 m/s 735 mmHg 100%
    15:00 -2°C° 0 mm 4 m/s 735 mmHg 99%
    16:00 -2°C° 0 mm 4 m/s 735 mmHg 98%
    17:00 -2°C° 0 mm 4 m/s 735 mmHg 98%
    18:00 -3°C° 0 mm 4 m/s 735 mmHg 98%
    19:00 -3°C° 0 mm 4 m/s 736 mmHg 98%
    20:00 -3°C° 0 mm 4 m/s 736 mmHg 97%
    21:00 -3°C° 0 mm 4 m/s 736 mmHg 97%
    22:00 -2°C° 0 mm 3 m/s 736 mmHg 97%
    23:00 -4°C° 0 mm 3 m/s 736 mmHg 97%
    Mostrar mais